FW8901 Weather Reports


Display with metric or nautical units.
time (UTC)temp
F
wind
direction
speed
MPH
gust
MPH
rain 1hr
in
rain 24hr
in
rain mn
in
humidity
%
barometer
mb
20220813205924 80 157 1.0 1.0 0.00 0.00 0.00 41 1018.8
20220813205142 80 247 0.0 1.0 0.00 0.00 0.00 46 1018.8
20220813204127 80 247 0.0 1.0 0.00 0.00 0.00 42 1018.9
20220813203619 81 247 1.0 2.0 0.00 0.00 0.00 42 1019.0
20220813203113 82 240 1.0 3.0 0.00 0.00 0.00 41 1019.0
20220813203010 82 219 1.0 2.0 0.00 0.00 0.00 39 1019.1
20220813202905 82 188 1.0 3.0 0.00 0.00 0.00 39 1019.0
20220813201825 84 210 2.0 3.0 0.00 0.00 0.00 34 1019.1
20220813201701 83 210 0.0 3.0 0.00 0.00 0.00 37 1019.1
20220813201217 85 279 0.0 1.0 0.00 0.00 0.00 37 1019.1
20220813200316 84 279 0.0 1.0 0.00 0.00 0.00 40 1019.1
20220813195544 83 279 0.0 2.0 0.00 0.00 0.00 36 1019.2
20220813195037 83 278 1.0 2.0 0.00 0.00 0.00 37 1019.3
20220813194532 84 274 1.0 2.0 0.00 0.00 0.00 41 1019.4
20220813194304 85 175 1.0 2.0 0.00 0.00 0.00 39 1019.4
20220813193708 83 157 1.0 4.0 0.00 0.00 0.00 38 1019.5
20220813193556 84 180 1.0 2.0 0.00 0.00 0.00 38 1019.5
20220813193327 84 155 1.0 2.0 0.00 0.00 0.00 39 1019.5
20220813193201 84 232 1.0 4.0 0.00 0.00 0.00 37 1019.5
20220813191713 83 229 1.0 4.0 0.00 0.00 0.00 36 1019.6
20220813191434 83 167 2.0 4.0 0.00 0.00 0.00 39 1019.6
20220813190707 83 177 2.0 4.0 0.00 0.00 0.00 41 1019.7
20220813185926 83 107 1.0 2.0 0.00 0.00 0.00 35 1019.6
20220813185648 83 320 1.0 3.0 0.00 0.00 0.00 40 1019.9
20220813185523 84 318 1.0 2.0 0.00 0.00 0.00 40 1019.9
20220813184853 83 160 1.0 4.0 0.00 0.00 0.00 40 1020.0
20220813184118 83 259 3.0 4.0 0.00 0.00 0.00 38 1020.1
20220813183841 83 91 1.0 2.0 0.00 0.00 0.00 41 1020.1
20220813182835 82 106 2.0 3.0 0.00 0.00 0.00 37 1020.1
20220813182323 83 220 1.0 3.0 0.00 0.00 0.00 38 1020.1
20220813181821 83 99 1.0 3.0 0.00 0.00 0.00 41 1020.1
20220813181551 83 243 1.0 2.0 0.00 0.00 0.00 43 1020.1
20220813181315 82 169 1.0 3.0 0.00 0.00 0.00 39 1020.2
20220813180321 81 174 1.0 5.0 0.00 0.00 0.00 40 1020.2
20220813180308 82 242 1.0 5.0 0.00 0.00 0.00 40 1020.2
20220813180209 81 300 1.0 4.0 0.00 0.00 0.00 39 1020.3
20220813175200 80 291 1.0 3.0 0.00 0.00 0.00 44 1020.5
20220813174823 81 95 1.0 3.0 0.00 0.00 0.00 40 1020.4
20220813174813 81 310 0.0 2.0 0.00 0.00 0.00 40 1020.4
20220813173254 80 340 1.0 3.0 0.00 0.00 0.00 39 1020.6
20220813172927 79 339 1.0 3.0 0.00 0.00 0.00 42 1020.9
20220813172807 80 103 1.0 3.0 0.00 0.00 0.00 43 1020.6
20220813172548 79 95 1.0 3.0 0.00 0.00 0.00 42 1020.7
20220813172034 79 333 1.0 3.0 0.00 0.00 0.00 44 1020.8
20220813171649 78 64 1.0 3.0 0.00 0.00 0.00 49 1021.0
20220813170737 79 200 1.0 3.0 0.00 0.00 0.00 45 1020.9
20220813170232 78 233 1.0 3.0 0.00 0.00 0.00 48 1021.1
20220813165923 77 257 0.0 3.0 0.00 0.00 0.00 46 1021.1
20220813164644 77 290 0.0 2.0 0.00 0.00 0.00 49 1021.1
20220813164638 77 342 0.0 2.0 0.00 0.00 0.00 50 1021.1
20220813163906 77 302 0.0 2.0 0.00 0.00 0.00 49 1021.1
20220813163404 77 161 0.0 2.0 0.00 0.00 0.00 47 1021.2
20220813163243 76 91 1.0 2.0 0.00 0.00 0.00 48 1021.4
20220813162627 76 281 0.0 2.0 0.00 0.00 0.00 51 1021.3
20220813161847 76 311 0.0 2.0 0.00 0.00 0.00 51 1021.4
20220813161721 76 252 0.0 2.0 0.00 0.00 0.00 49 1021.3
20220813160841 76 346 1.0 2.0 0.00 0.00 0.00 48 1021.5
20220813160340 75 259 0.0 2.0 0.00 0.00 0.00 50 1021.4
20220813155838 75 260 1.0 2.0 0.00 0.00 0.00 53 1021.5
20220813155331 75 147 0.0 2.0 0.00 0.00 0.00 51 1021.5
20220813154831 75 5 1.0 2.0 0.00 0.00 0.00 52 1021.5
20220813154053 74 297 1.0 2.0 0.00 0.00 0.00 52 1021.8
20220813153822 74 336 0.0 2.0 0.00 0.00 0.00 55 1021.7
20220813153042 74 313 0.0 2.0 0.00 0.00 0.00 54 1021.8
20220813152530 73 65 0.0 2.0 0.00 0.00 0.00 54 1021.7
20220813152027 73 136 1.0 2.0 0.00 0.00 0.00 53 1021.5
20220813151800 73 355 1.0 2.0 0.00 0.00 0.00 54 1021.5
20220813151255 73 295 1.0 2.0 0.00 0.00 0.00 56 1021.5
20220813150536 73 90 0.0 1.0 0.00 0.00 0.00 55 1021.7
20220813150006 73 333 0.0 2.0 0.00 0.00 0.00 59 1021.7
20220813145734 73 1 0.0 2.0 0.00 0.00 0.00 57 1021.8
20220813145231 72 148 0.0 2.0 0.00 0.00 0.00 59 1021.8
20220813144456 72 147 1.0 3.0 0.00 0.00 0.00 58 1021.8
20220813143951 72 281 1.0 3.0 0.00 0.00 0.00 58 1022.0
20220813143927 71 126 0.0 2.0 0.00 0.00 0.00 61 1021.9
20220813143530 72 311 1.0 2.0 0.00 0.00 0.00 62 1022.0
20220813142414 71 290 1.0 2.0 0.00 0.00 0.00 59 1021.9
20220813142322 72 145 0.0 2.0 0.00 0.00 0.00 60 1021.9
20220813142202 72 325 1.0 2.0 0.00 0.00 0.00 58 1021.9
20220813140905 71 293 1.0 2.0 0.00 0.00 0.00 61 1021.9
20220813140633 71 96 0.0 1.0 0.00 0.00 0.00 62 1021.9
20220813135859 70 262 0.0 2.0 0.00 0.00 0.00 65 1021.9
20220813135626 69 92 1.0 2.0 0.00 0.00 0.00 67 1021.8
20220813135124 69 103 0.0 1.0 0.00 0.00 0.00 70 1021.7
20220813134351 68 103 0.0 2.0 0.00 0.00 0.00 67 1021.8
20220813134114 67 314 0.0 3.0 0.00 0.00 0.00 70 1021.5
20220813133838 67 304 0.0 3.0 0.00 0.00 0.00 68 1021.7
20220813133103 66 110 0.0 1.0 0.00 0.00 0.00 71 1021.7
20220813132600 66 110 0.0 1.0 0.00 0.00 0.00 72 1021.7
20220813131828 65 269 1.0 1.0 0.00 0.00 0.00 72 1021.7
20220813131254 65 277 0.0 1.0 0.00 0.00 0.00 72 1021.7
20220813131236 65 276 0.0 1.0 0.00 0.00 0.00 76 1021.5
20220813130457 64 276 1.0 1.0 0.00 0.00 0.00 72 1021.5
20220813125956 63 316 0.0 1.0 0.00 0.00 0.00 75 1021.7
20220813125454 63 316 0.0 1.0 0.00 0.00 0.00 75 1021.7
20220813124723 62 314 0.0 1.0 0.00 0.00 0.00 80 1021.7
20220813124217 62 313 0.0 0.0 0.00 0.00 0.00 82 1021.7
20220813124210 62 314 0.0 0.0 0.00 0.00 0.00 81 1021.7
20220813123828 62 313 0.0 1.0 0.00 0.00 0.00 82 1021.5
20220813122659 61 313 0.0 1.0 0.00 0.00 0.00 80 1021.4
20220813122428 61 312 0.0 1.0 0.00 0.00 0.00 84 1021.4
20220813122318 60 312 0.0 1.0 0.00 0.00 0.00 83 1021.4
20220813121655 60 312 0.0 1.0 0.00 0.00 0.00 84 1021.4
20220813120650 60 311 0.0 1.0 0.00 0.00 0.00 84 1021.3
20220813120146 59 311 0.0 1.0 0.00 0.00 0.00 85 1021.3
20220813115640 59 311 0.0 1.0 0.00 0.00 0.00 87 1021.3
20220813115406 59 311 0.0 1.0 0.00 0.00 0.00 87 1021.2
20220813114904 59 315 0.0 1.0 0.00 0.00 0.00 87 1021.2
20220813114610 59 315 0.0 0.0 0.00 0.00 0.00 87 1021.1
20220813113833 58 315 0.0 1.0 0.00 0.00 0.00 86 1021.1
20220813113326 58 315 0.0 1.0 0.00 0.00 0.00 87 1021.1
20220813113213 58 315 0.0 0.0 0.00 0.00 0.00 87 1021.0
20220813112326 58 315 0.0 0.0 0.00 0.00 0.00 85 1020.9
20220813111805 58 315 0.0 0.0 0.00 0.00 0.00 85 1020.9
20220813111516 58 315 0.0 0.0 0.00 0.00 0.00 84 1020.8
20220813111139 58 315 0.0 0.0 0.00 0.00 0.00 83 1020.5
20220813111135 58 315 0.0 0.0 0.00 0.00 0.00 84 1020.6
20220813105454 58 315 0.0 1.0 0.00 0.00 0.00 84 1020.6
20220813105320 58 315 0.0 1.0 0.00 0.00 0.00 84 1020.6
20220813105230 58 315 0.0 1.0 0.00 0.00 0.00 85 1020.5
20220813104827 58 315 0.0 1.0 0.00 0.00 0.00 84 1020.5
20220813103412 58 315 0.0 1.0 0.00 0.00 0.00 85 1020.5
20220813103124 58 315 0.0 1.0 0.00 0.00 0.00 85 1020.5
20220813102354 58 315 0.0 1.0 0.00 0.00 0.00 85 1020.5
20220813102123 58 315 0.0 1.0 0.00 0.00 0.00 85 1020.5
20220813101621 58 319 0.0 1.0 0.00 0.00 0.00 85 1020.5
20220813100850 58 319 0.0 0.0 0.00 0.00 0.00 87 1020.4
20220813100348 58 319 0.0 1.0 0.00 0.00 0.00 86 1020.3
20220813095837 58 318 0.0 1.0 0.00 0.00 0.00 87 1020.2
20220813095339 59 318 0.0 1.0 0.00 0.00 0.00 87 1020.2
20220813095335 58 318 0.0 1.0 0.00 0.00 0.00 87 1020.3
20220813094605 59 318 0.0 1.0 0.00 0.00 0.00 87 1020.3
20220813094329 59 318 0.0 1.0 0.00 0.00 0.00 88 1020.2
20220813093317 59 318 0.0 1.0 0.00 0.00 0.00 88 1020.2
20220813093047 59 319 0.0 1.0 0.00 0.00 0.00 88 1020.2
20220813092545 59 318 0.0 1.0 0.00 0.00 0.00 88 1020.1
20220813091808 59 319 0.0 1.0 0.00 0.01 0.00 86 1020.1
20220813091632 59 344 0.0 0.0 0.00 0.01 0.00 87 1020.0
20220813091255 59 319 0.0 1.0 0.00 0.01 0.00 86 1020.2
20220813091016 59 344 0.0 0.0 0.00 0.01 0.00 87 1020.1
20220813090348 60 344 0.0 1.0 0.00 0.01 0.00 88 1019.9
20220813085512 60 344 0.0 0.0 0.00 0.01 0.00 88 1019.9
20220813085236 60 343 0.0 1.0 0.00 0.01 0.00 88 1019.9
20220813084851 60 344 0.0 1.0 0.00 0.01 0.00 88 1019.8
20220813084233 60 344 0.0 1.0 0.00 0.01 0.00 88 1019.9
20220813083454 60 344 0.0 0.0 0.00 0.01 0.00 90 1019.9
20220813082713 60 344 0.0 0.0 0.00 0.01 0.00 89 1019.8
20220813082437 60 344 0.0 1.0 0.00 0.01 0.00 90 1019.7
20220813082150 60 343 0.0 1.0 0.00 0.01 0.00 91 1019.6
20220813081145 60 344 0.0 1.0 0.00 0.01 0.00 91 1019.5
20220813080633 60 343 0.0 1.0 0.00 0.01 0.00 90 1019.5
20220813080356 60 344 0.0 1.0 0.00 0.01 0.00 91 1019.5
20220813075557 60 344 0.0 0.0 0.00 0.01 0.00 90 1019.3
20220813075045 60 344 0.0 0.0 0.00 0.01 0.00 90 1019.2
20220813074545 60 344 0.0 0.0 0.00 0.01 0.00 90 1019.3
20220813074313 60 344 0.0 0.0 0.00 0.01 0.00 90 1019.3
20220813073802 60 344 0.0 0.0 0.00 0.01 0.00 90 1019.2
20220813073527 60 344 0.0 0.0 0.00 0.01 0.00 90 1019.2
20220813072955 60 344 0.0 1.0 0.00 0.01 0.00 89 1019.1
20220813072841 60 344 0.0 0.0 0.00 0.01 0.00 89 1019.1
20220813071720 60 344 0.0 1.0 0.00 0.01 0.00 88 1019.0
20220813071321 60 344 0.0 1.0 0.00 0.01 0.00 88 1019.0
20220813071216 61 344 0.0 1.0 0.00 0.01 0.00 89 1019.0
20220813065941 61 344 0.0 0.0 0.00 0.01 0.00 88 1019.0
20220813065711 61 344 0.0 0.0 0.00 0.01 0.00 88 1018.9
20220813065149 61 344 0.0 0.0 0.00 0.01 0.00 88 1018.8
20220813065025 61 344 0.0 0.0 0.00 0.01 0.00 88 1018.9
20220813064146 61 344 0.0 1.0 0.00 0.01 0.00 88 1018.6
20220813063909 61 344 0.0 0.0 0.00 0.01 0.00 88 1018.7
20220813062857 61 344 0.0 1.0 0.00 0.01 0.00 88 1018.7
20220813062400 61 344 0.0 0.0 0.00 0.01 0.00 88 1018.7
20220813061835 61 344 0.0 0.0 0.00 0.01 0.00 87 1018.7
20220813061556 61 344 0.0 1.0 0.00 0.01 0.00 87 1018.6
20220813061056 61 344 0.0 1.0 0.00 0.01 0.00 85 1018.6
20220813060301 61 345 0.0 0.0 0.00 0.01 0.00 86 1018.6
20220813060255 61 345 0.0 0.0 0.00 0.01 0.00 86 1018.5
20220813055521 61 345 0.0 0.0 0.00 0.01 0.00 85 1018.5
20220813055011 61 345 0.0 0.0 0.00 0.01 0.00 86 1018.5
20220813054239 61 345 0.0 0.0 0.00 0.01 0.00 86 1018.5
20220813053738 61 345 0.0 0.0 0.00 0.01 0.00 85 1018.5
20220813053504 62 345 0.0 0.0 0.00 0.01 0.00 85 1018.5
20220813052955 62 345 0.0 0.0 0.00 0.01 0.00 87 1018.4
20220813052223 62 345 0.0 0.0 0.00 0.01 0.00 85 1018.5
20220813052217 62 345 0.0 0.0 0.00 0.01 0.00 85 1018.4
20220813051446 62 345 0.0 0.0 0.00 0.01 0.00 84 1018.6
20220813050719 62 345 0.0 0.0 0.00 0.01 0.00 84 1018.6
20220813050712 62 345 0.0 0.0 0.00 0.01 0.00 84 1018.6
20220813050209 62 345 0.0 0.0 0.00 0.01 0.00 83 1018.6
20220813045433 62 345 0.0 0.0 0.00 0.01 0.00 83 1018.7
20220813044658 62 345 0.0 0.0 0.00 0.01 0.00 84 1018.6
20220813044419 62 345 0.0 0.0 0.00 0.01 0.00 84 1018.7
20220813043640 62 345 0.0 0.0 0.00 0.01 0.00 83 1018.7
20220813043139 62 345 0.0 0.0 0.00 0.01 0.00 83 1018.7
20220813043128 63 345 0.0 0.0 0.00 0.01 0.00 83 1018.7
20220813042125 63 345 0.0 0.0 0.00 0.01 0.00 82 1018.6
20220813041618 63 345 0.0 0.0 0.00 0.01 0.00 81 1018.6
20220813041107 63 345 0.0 0.0 0.00 0.01 0.00 80 1018.6
20220813040559 63 345 0.0 0.0 0.00 0.01 0.00 80 1018.7
20220813040049 63 345 0.0 0.0 0.00 0.01 0.00 81 1018.6
20220813035757 63 345 0.0 0.0 0.00 0.01 0.01 81 1018.6
20220813035634 63 345 0.0 0.0 0.00 0.01 0.01 81 1018.6
20220813035129 63 345 0.0 0.0 0.00 0.01 0.01 80 1018.6
20220813034907 63 345 0.0 0.0 0.00 0.01 0.01 81 1018.6
20220813034406 63 345 0.0 0.0 0.00 0.01 0.01 81 1018.6
20220813033518 63 345 0.0 0.0 0.00 0.01 0.01 80 1018.6
20220813033240 63 345 0.0 0.0 0.00 0.01 0.01 81 1018.5
20220813032612 64 345 0.0 0.0 0.00 0.01 0.01 79 1018.6
20220813031410 64 345 0.0 0.0 0.00 0.01 0.01 79 1018.5
20220813030906 64 345 0.0 0.0 0.00 0.01 0.01 79 1018.5
20220813030403 64 345 0.0 0.0 0.00 0.01 0.01 80 1018.5
20220813025850 64 345 0.0 0.0 0.00 0.01 0.01 80 1018.5
20220813025618 64 345 0.0 0.0 0.00 0.01 0.01 79 1018.4
20220813025118 64 345 0.0 0.0 0.00 0.01 0.01 80 1018.4
20220813024310 64 345 0.0 0.0 0.00 0.01 0.01 79 1018.4
20220813023807 64 345 0.0 0.0 0.00 0.01 0.01 79 1018.3
20220813023306 64 345 0.0 0.0 0.00 0.01 0.01 77 1018.3
20220813023027 65 345 0.0 0.0 0.00 0.01 0.01 79 1018.3
20220813022234 65 345 0.0 0.0 0.00 0.01 0.01 77 1018.2
20220813021721 65 345 0.0 0.0 0.00 0.01 0.01 79 1018.2
20220813021211 65 345 0.0 0.0 0.00 0.01 0.01 80 1018.2
20220813020658 65 345 0.0 0.0 0.00 0.01 0.01 79 1018.2
20220813020152 65 345 0.0 0.0 0.00 0.01 0.01 78 1018.2
20220813015815 66 345 0.0 0.0 0.00 0.01 0.01 78 1018.3
20220813015659 65 345 0.0 0.0 0.00 0.01 0.01 77 1018.3
20220813015203 66 345 0.0 0.0 0.00 0.01 0.01 77 1018.1
20220813015156 66 345 0.0 0.0 0.00 0.01 0.01 79 1018.2
20220813014920 66 345 0.0 0.0 0.00 0.01 0.01 77 1018.2
20220813013405 66 345 0.0 0.0 0.00 0.01 0.01 77 1018.1
20220813012635 66 345 0.0 0.0 0.00 0.01 0.01 76 1018.0
20220813012128 66 345 0.0 0.0 0.00 0.01 0.01 74 1018.1
20220813011617 67 345 0.0 0.0 0.00 0.01 0.01 75 1018.1
20220813011339 67 345 0.0 0.0 0.00 0.01 0.01 74 1018.0
20220813011226 67 345 0.0 0.0 0.00 0.01 0.01 74 1018.0
20220813010051 67 345 0.0 0.0 0.00 0.01 0.01 75 1018.0
20220813005825 67 345 0.0 0.0 0.00 0.01 0.01 75 1018.0
20220813005051 68 345 0.0 0.0 0.00 0.01 0.01 74 1017.9
20220813004550 68 345 0.0 0.0 0.00 0.01 0.01 73 1017.9
20220813004507 68 345 0.0 0.0 0.00 0.01 0.01 73 1017.8
20220813003440 69 345 0.0 0.0 0.00 0.01 0.01 70 1017.8
20220813002934 69 345 0.0 0.0 0.00 0.01 0.01 71 1017.8
20220813002430 70 345 0.0 0.0 0.00 0.01 0.01 71 1017.9
20220813001923 70 345 0.0 0.0 0.00 0.01 0.01 70 1017.8
20220813001918 70 345 0.0 0.0 0.00 0.01 0.01 68 1017.7
20220813000911 71 345 0.0 0.0 0.00 0.01 0.01 68 1017.8
20220813000403 71 345 0.0 0.0 0.00 0.01 0.01 68 1017.7
20220813000125 72 345 0.0 0.0 0.00 0.01 0.01 67 1017.6
20220812235847 71 345 0.0 0.0 0.00 0.01 0.01 67 1017.7
20220812234846 72 345 0.0 0.0 0.00 0.01 0.01 66 1017.5
20220812234339 73 345 0.0 0.0 0.00 0.01 0.01 64 1017.6
20220812233839 73 345 0.0 0.0 0.00 0.01 0.01 63 1017.6
20220812233612 74 345 0.0 0.0 0.00 0.01 0.01 64 1017.6
20220812233336 73 345 0.0 0.0 0.00 0.01 0.01 63 1017.5
20220812232330 74 345 0.0 1.0 0.00 0.01 0.01 64 1017.5
20220812231828 74 345 0.0 1.0 0.00 0.01 0.01 59 1017.5
20220812231559 75 344 0.0 1.0 0.00 0.01 0.01 61 1017.4
20220812231153 75 344 0.0 2.0 0.00 0.01 0.01 57 1017.4
20220812231043 75 344 0.0 1.0 0.00 0.01 0.01 63 1017.4
20220812225803 76 345 0.0 2.0 0.00 0.01 0.01 62 1017.3
20220812225259 76 354 0.0 1.0 0.00 0.01 0.01 59 1017.2
20220812225105 77 354 0.0 2.0 0.00 0.01 0.01 56 1017.2
20220812224956 77 354 0.0 2.0 0.00 0.01 0.01 54 1017.2
20220812224209 78 80 0.0 2.0 0.00 0.01 0.01 55 1017.2
20220812223813 78 29 0.0 2.0 0.00 0.01 0.01 56 1017.3
20220812223158 78 2 0.0 2.0 0.00 0.01 0.01 55 1017.2
20220812222417 78 356 0.0 2.0 0.00 0.01 0.01 53 1017.2
20220812221640 79 350 0.0 1.0 0.00 0.01 0.01 58 1017.2
20220812221034 79 351 0.0 3.0 0.00 0.01 0.01 55 1017.2
20220812220529 79 8 0.0 3.0 0.00 0.01 0.01 57 1017.2
20220812220125 79 317 0.0 1.0 0.00 0.01 0.01 56 1017.1
20220812220025 79 317 0.0 1.0 0.00 0.01 0.01 57 1017.2
20220812215748 79 317 0.0 3.0 0.00 0.01 0.01 54 1017.2
20220812214514 79 318 0.0 4.0 0.00 0.01 0.01 52 1017.2
20220812214237 78 160 1.0 3.0 0.00 0.01 0.01 56 1017.0
20220812214112 79 341 1.0 4.0 0.00 0.01 0.01 54 1017.1
20220812213609 78 237 0.0 3.0 0.00 0.01 0.01 54 1017.1
20220812212457 79 352 0.0 2.0 0.00 0.01 0.01 59 1017.0
20220812212233 78 22 0.0 2.0 0.00 0.01 0.01 56 1016.9
20220812211941 79 306 0.0 1.0 0.00 0.01 0.01 55 1016.8
20220812211546 78 307 0.0 1.0 0.00 0.01 0.01 57 1016.9
20220812210709 79 324 0.0 4.0 0.00 0.01 0.01 56 1016.9